Location:  
MeteoStar


Sort by weather type Sort by elevation Sort by visibility Sort from west to east north Sort from north to south Alphabetically Sort from strongest wind speed Sort from lowest to highest pressure Sort from highest to lowest dew point temperature Sort coolest temperatures to warmest Sort warm temperatures to coolest
 Metric

Current Observations for United Kingdom sorted from warmest to coolest

Aberporth22:00ZNot Avail.68 42301020.4E 2 68436
Saint Helena Island21:50ZNot Avail.65 57301017.7SE 11 651427
Mumbles22:00ZNot Avail.65 49251020.9ENE 3 65114
Crosby21:50ZNot Avail.65 44301022.9N 6526
Rhyl22:00ZNot Avail.65 47201022.5SE 6 65252
Liverpool Airport 21:50ZClear64 4561023.1E 13 6485
Milford Haven22:00ZNot Avail.63 48251020.2NE 3 63144
Pershore22:00ZNot Avail.63 39301022.7E 7 63104
Aberdaron22:00ZNot Avail.63 47351021.4ENE 5 63311
Northolt21:50ZClear63 41251022.1E 8 63124
Shawbury21:50ZClear63 43201022.0E 9 63249
London / Heathrow Airport21:50ZClear63 41201022.1ENE 6 6378
London City Airport21:50ZClear63 46251023.1E 10 6316
Jersey Airport21:50ZClear63 45251018.0E 16 63275
Shobdon22:00ZNot Avail.62 45161022.0ENE 6 62324
Sennybridge22:00ZNot Avail.62 4681021.4E 7 621007
Blackpool Airport22:00ZNot Avail.62 4720ESE 15 6232
Saint Catherines Point22:00ZNot Avail.61 47201020.0ENE 12 6152
Capel Curig22:00ZFog61 48251022.7NNE 4 61708
Middle Wallop21:50ZClear61 41351021.0ENE 10 61298
Brize Norton21:50ZNot Avail.61 39251022.0E 6 61288
Fairford Royal Air Force Base21:56ZClear61 40201022.2E 9 61285
Isle Of Man / Ronaldsway Airport21:50ZNot Avail.61 50251022.1E 16 6155
Bristol / Lulsgate 21:50ZClear61 3961020.8E 8 61620
Cardiff-Wales Airport21:50ZClear61 4861021.0ESE 4 61219
Yeovilton21:50ZClear61 4561020.1NE 2 6175
Boscombe Down21:50ZClear61 41251020.9E 9 61406
Chivenor22:00ZNot Avail.61 44251020.2E 4 6126
Manchester Airport21:50ZClear61 41301024.0E 9 61226
Birmingham / Airport21:50ZNot Avail.61 46301023.0E 9 61324
Thorney Island22:00ZNot Avail.60 45301020.9ENE 8 6013
Camborne22:00ZCloudy60 39251019.2E 10 60285
Lake Vyrnwy22:00ZNot Avail.60 45201022.2ENE 9 601181
Keswick22:00ZNot Avail.60 47251024.3E 7 60265
Shoreham Airport22:00ZNot Avail.60 44251021NE 10 606
Ballypatrick Forest22:00ZNot Avail.59 41251022.4S 7 59511
Herstmonceux22:00ZNot Avail.59 44251021.2ENE 5 59170
Saint Bees Head22:00ZNot Avail.59 46151023.2ESE 11 59406
Odiham21:50ZClear59 43301022.0ENE 9 59403
Manston22:00ZNot Avail.59 47111021.9NE 12 59180
Inverness / Dalcross21:50ZClear59 36111024.1SSW 7 5929
West Freugh22:00ZNot Avail.59 46301022.7E 11 5936
Valley21:50ZClear59 50201021.1ENE 8 593
Lydd Airport 21:50ZClear59 54201021.1ENE 14 599
Guernsey Airport21:50ZNot Avail.59 46201018.0E 11 59334
Culdrose21:50ZClear59 45161019.1E 19 59255
Lyneham22:00ZNot Avail.59 41251022.0N 59475
Plymouth22:00ZNot Avail.59 41131019.9N 59164
Isle Of Portland22:00ZNot Avail.58 51201020.2E 15 58173
Cardinham22:00ZNot Avail.58 38251019.7E 11 58656
Shoeburyness22:00ZNot Avail.58 49171022.5ENE 8 586
High Wicombe Hqstc22:00ZNot Avail.58 41251022.7ESE 8 58669
Church Lawford22:00ZNot Avail.58 41301023.4ENE 5 58351
Prestwick Rnas22:00ZNot Avail.58 46351023.5ESE 6 5885
South Uist Range22:00ZNot Avail.58 49451022.5ESE 8 5832
Castlederg22:00ZNot Avail.57 44251021.2E 7 57167
Dunkeswell Aerodrome22:00ZNot Avail.57 41201020.9E 5 57826
Trawscoed22:00ZNot Avail.57 47251021.0W 2 57206
Dundrennan22:00ZNot Avail.57 47251023.0E 17 Gusting to 27 57374
Lossiemouth21:50ZNot Avail.57 36351025.1SSE 12 5742
Kinloss21:50ZPartly Cloudy57 36201025.1SE 12 5722
Stornoway21:50ZNot Avail.57 52351023.1NE 5 5729
Prestwick Airport21:50ZNot Avail.57 46111024.1E 4 5765
Pembrey Sands21:50ZClear57 50251020.1SE 4 579
Farnborough21:50ZClear57 43251022.0ENE 5 57213
London / Gatwick Airport21:50ZNot Avail.57 46251022.0ENE 6 57203
Belfast / Harbour21:50ZClear57 45301022.1N 2 5716
Portglenone22:00ZNot Avail.56 42201021.5S 3 56209
Langdon Bay22:00ZNot Avail.56 50301021.5NNE 18 56383
Kenley22:00ZNot Avail.56 47301022.4ENE 5 56557
Little Rissington22:00ZNot Avail.56 39251022.4E 9 56705
Donna Nook22:00ZNot Avail.56 50121025.4E 13 5626
Tulloch Bridge22:00ZNot Avail.56 38301026.0SE 9 56777
Mildenhall Royal Air Force Base21:56ZClear56 47111024ENE 6 5632
Lakenheath Royal Air Force Base21:56ZClear56 44301023.7ENE 8 5632
Machrihanish22:00ZNot Avail.56 44201022.5ESE 10 5642
Tain Range22:00ZNot Avail.56 40301024.5SSE 10 5613
Bournemouth Airport22:00ZNot Avail.56 43251021NE 2 5636
Larkhill22:00ZNot Avail.55 41201021.7ENE 6 55433
Liscombe22:00ZNot Avail.55 40171021.2ESE 3 551141
Nottingham Weather Centre22:00ZNot Avail.55 44201024.8ENE 5 55383
Warcop Range22:00ZNot Avail.55 44301024.8E 18 Gusting to 26 55744
Aviemore22:00ZNot Avail.55 34251025.5WSW 6 55721
Marham21:50ZClear55 45101024.1ENE 6 5575
Wittering21:50ZClear55 45251023.0ENE 8 55275
Coningsby Royal Air Force Base21:50ZNot Avail.55 48201025.1ENE 9 5522
Wattisham21:50ZClear55 45201023.0NE 7 55285
Benson21:50ZClear55 41141022.0ENE 8 55206
Stansted Airport21:50ZClear55 45351023.0NE 9 55347
Tiree21:50ZClear55 46301022.1ESE 10 5539
Benbecula21:50ZClear55 48111023.1SE 7 5519
Glasgow Airport21:50ZClear55 46111025.1ENE 12 5526
East Midlands21:50ZNot Avail.55 43251024.0N 3 55308
Luton Airport 21:50ZClear55 4361022.9E 7 55524
Belfast / Aldergrove Airport21:50ZNot Avail.55 45301022.1ESE 8 55265
Lough Fea22:00ZNot Avail.54 40251022.2ESE 5 53738
Weybourne22:00ZNot Avail.54 48201025.1E 9 5168
Carlisle22:00ZNot Avail.54 45301025.3N 5491
Loch Glascanoch22:00ZNot Avail.54 43301024.1ESE 8 52869
Holbeach22:00ZNot Avail.54 48101024.6E 10 519
Linton-On-Ouse21:50ZClear54 4871026.1ENE 7 5252
Norwich Weather Centre21:50ZClear54 46351024.1ENE 6 5245
Leuchars21:50ZPartly Cloudy54 50141027.1ESE 11 5139
Southend-On-Sea 21:50ZNot Avail.54 48201023.1NNE 6 5249
Bingley22:00ZNot Avail.53 47301025.8E 6 51859
Bridlington Mrsc22:00ZNot Avail.53 5141026.1ENE 8 5049
Drumalbin22:00ZNot Avail.53 40351025E 6 51803
Aultbea22:00ZNot Avail.53 48301023.0NE 1 5336
Wainfleet22:00ZNot Avail.53 50201025.0E 8 509
Glenanne22:00ZNot Avail.52 40301021.7NE 2 52528
Cranwell21:50ZClear52 48101025.1ENE 7 50219
Topcliffe Royal Air Force Base 21:50ZClear52 4871026.1ESE 7 5091
Waddington21:50ZClear52 4871025.1ENE 7 50223
Leeming21:50ZClear52 4581026.1SW 3 52131
Boulmer21:50ZMist52 5041027.1E 4 5175
Humberside21:50ZClear52 50201026.1ENE 3 52101
Altnaharra22:00ZNot Avail.51 45301024.4W 5 49265
Aonach Mor22:00ZNot Avail.51 3930SSE 11 473707
Eskdalemuir22:00ZNot Avail.50 40301026.5N 5 48793
Strathallan22:00ZNot Avail.50 46201027.1ENE 4 49114
Edinburgh Airport21:50ZNot Avail.50 48111025.1NE 7 47134
Wick21:50ZClear50 46131027.1SSE 13 45127
Kirkwall Airport21:50ZClear50 45191027.1SE 14 4568
Newcastle 21:50ZPartly Cloudy50 46251027.1ESE 4 49265
Loftus Samos22:00ZNot Avail.49 4941026.5ESE 14 44190
Shap22:00ZNot Avail.49 45181025.9S 4 48816
Inverbervie22:00ZMist49 4841028.4ESE 7 46439
Fair Isle22:00ZNot Avail.49 4781029.3SE 9 45187
Fylingdales22:00ZNot Avail.48 474E 10 44859
Charterhall22:00ZNot Avail.48 47201026.8NE 7 45367
Leconfield21:50ZMist48 4841026.1NNE 4 4719
Scatsa / Shetland Island21:50ZClear48 43111030.1N 3 4872
Aberdeen / Dyce21:50ZMostly Cloudy48 46111028.1S 6 45213
Sumburgh Cape 21:50ZClear48 46191029.1ESE 7 4516
Spadeadam21:50ZClear48 45251025.9ENE 9 441066
Spadeadam22:00ZNot Avail.47 45121026.6ENE 9 43935
Glen Ogle22:00ZNot Avail.46 3920SE 11 411850
Baltasound22:00ZNot Avail.46 45111030.4SSE 6 4349
Lerwick22:00ZNot Avail.45 4571030S 5 42269
Redesdale22:00ZNot Avail.44 42101027.6NNE 5 41692
Great Dun Fell22:00ZNot Avail.44 4330ESE 16 372778
Aboyne22:00ZNot Avail.44 36251028.0E 3 44459
Cairnwell22:00ZNot Avail.42 2925SSE 12 Gusting to 27 353061
Cairngorm22:00ZNot Avail.40 3025S 19 Gusting to 30 314084

Atlantic
Tropical Watch